Location: Muenchen
(48.1800°N, 11.5800°E)
Time: 18:42:33
(UTC+02:00)

Tiros 1 - Visible Passes

Search period start: 28 May 2017 00:00
Search period end: 07 June 2017 00:00
Orbit: 631 x 664 km, 48.4° (Epoch: 27 May)

Date Brightness Start Highest point End Pass type
(mag) Time Alt. Az. Time Alt. Az. Time Alt. Az.
28 May 7.1 00:42:27 40° SW 00:43:52 58° SSE 00:48:27 10° E visible
28 May 7.1 02:21:19 10° W 02:26:01 87° N 02:30:41 10° E visible
28 May 7.1 04:03:36 10° W 04:08:14 70° SSW 04:12:50 10° ESE visible
28 May 7.7 23:23:52 10° SSW 23:28:08 34° SSE 23:32:22 10° E visible
29 May 7.0 01:05:20 10° WSW 01:10:02 81° S 01:14:43 10° E visible
29 May 7.0 02:47:36 10° W 02:52:18 90° SSW 02:56:58 10° E visible
29 May 7.4 04:29:54 10° W 04:34:21 45° SSW 04:38:45 10° SE visible
29 May 8.5 22:09:25 10° S 22:12:37 18° SE 22:15:47 10° E visible
29 May 7.1 23:49:33 10° SW 23:54:10 56° SSE 23:58:45 10° E visible
30 May 7.1 01:31:36 10° W 01:36:19 87° N 01:40:59 10° E visible
30 May 7.0 03:13:53 10° W 03:18:32 72° SSW 03:23:10 10° ESE visible
30 May 7.8 22:34:15 10° SSW 22:38:27 33° SSE 22:42:39 10° E visible
31 May 7.0 00:15:37 10° WSW 00:20:20 79° SSE 00:25:01 10° E visible
31 May 7.0 01:57:53 10° W 02:02:36 89° NNE 02:07:16 10° E visible
31 May 7.3 03:40:11 10° W 03:44:40 48° SSW 03:49:07 10° SE visible
31 May 7.2 22:59:51 10° SW 23:04:28 54° SSE 23:09:03 10° E visible
01 Jun 7.1 00:41:51 10° W 00:46:36 88° N 00:51:17 10° E visible
01 Jun 7.0 02:24:10 10° W 02:28:51 74° SSW 02:33:28 10° ESE visible
01 Jun 7.9 04:06:40 10° W 04:10:38 28° SW 04:14:34 10° SSE visible
01 Jun 7.9 21:44:36 10° SSW 21:48:46 31° SSE 21:52:55 10° E visible
01 Jun 7.0 23:25:53 10° WSW 23:30:38 77° SSE 23:35:19 10° E visible
02 Jun 7.1 01:08:10 10° W 01:12:53 89° N 01:17:34 10° E visible
02 Jun 7.2 02:50:27 10° W 02:54:59 50° SSW 02:59:28 10° SE visible
02 Jun 8.7 04:33:47 10° WSW 04:36:25 15° SW 04:39:03 10° S visible
02 Jun 7.3 22:10:10 10° SW 22:14:46 51° SSE 22:19:20 10° E visible
02 Jun 7.1 23:52:08 10° W 23:56:53 88° N 00:01:35 10° E visible
03 Jun 7.0 01:34:27 10° W 01:39:08 76° SSW 01:43:47 10° ESE visible
03 Jun 7.8 03:16:54 10° W 03:20:58 30° SW 03:24:59 10° SSE visible
03 Jun 7.1 22:36:10 10° WSW 22:40:55 75° SSE 22:45:37 10° E visible
04 Jun 7.1 00:18:26 10° W 00:23:11 88° N 00:27:52 10° E visible
04 Jun 7.2 02:00:43 10° W 02:05:17 52° SSW 02:09:48 10° SE visible
04 Jun 8.6 03:43:54 10° W 03:46:46 16° SW 03:46:55 16° SW visible
04 Jun 7.1 23:02:24 10° W 23:07:10 89° N 23:11:53 10° E visible
05 Jun 7.0 00:44:42 10° W 00:49:26 78° SSW 00:53:30 14° ESE visible
05 Jun 7.8 02:27:09 10° W 02:31:02 31° SW 02:31:02 31° SW visible
05 Jun 7.1 21:46:27 10° WSW 21:51:12 73° SSE 21:55:55 10° E visible
05 Jun 7.1 23:28:42 10° W 23:33:28 87° N 23:38:10 10° E visible
06 Jun 7.2 01:10:59 10° W 01:15:36 55° SSW 01:16:59 39° SSE visible
06 Jun 9.2 02:54:04 10° W 02:54:35 12° WSW 02:54:35 12° WSW visible
06 Jun 7.2 22:12:40 10° W 22:17:27 90° ENE 22:22:11 10° E visible
